Regional Weather Roundup
Issued by NWS State College, PA

Home | Current Version | Previous Version | Text Only | Print | Product List | Glossary Off
Versions: 1 2 3 4 5 6 7 8 9 10 11 12 13 14 15 16 17 18 19 20 21 22 23 24 25 26 27 28 29 30 31 32 33 34 35 36 37 38 39 40 41 42 43 44 45 46 47 48 49 50

000
ASUS41 KCTP 221703
RWRCTP

REGIONAL WEATHER ROUNDUP
NATIONAL WEATHER SERVICE STATE COLLEGE PA
100 PM EDT FRI MAY 22 2015

Note: "fair" indicates few or no clouds below 12,000 feet with no
significant weather and/or obstructions to visibility.

* = STATION THAT DOES NOT REPORT PRECIPITATION /E.G. RAIN...SNOW...ETC/
    THUNDER OR FOG.

PAZ002>004-007>009-013>016-020>023-029>032-221800-
WESTERN PENNSYLVANIA

CITY           SKY/WX    TMP DP  RH WIND       PRES   REMARKS
ERIE           SUNNY     56  34  43 W14G23    30.14R
MEADVILLE      SUNNY     57  29  34 W15G30    30.13R
FRANKLIN*      SUNNY     59  34  38 NW7G20    30.12R
NEW CASTLE     PTSUNNY   64  37  36 W14G24    30.14R
BEAVER COUNTY  CLOUDY    61  43  51 NW8G16    30.13R
BUTLER*        PTSUNNY   64  45  48 W8G17     30.13S
PITTSBURGH INT PTSUNNY   64  44  48 W16       30.12S
PITTSBURGH     MOSUNNY   63  42  46 W17G23    30.11S
INDIANA*       PTSUNNY   61  45  55 W12G21    30.13S
LATROBE        PTSUNNY   64  48  55 SW15      30.13S
WASHINGTON CO* PTSUNNY   63  46  55 W13G20    30.16S
$$

PAZ004>006-010>012-017>019-024>028-033>037-041-042-045-046-049>053-221800-
CENTRAL PENNSYLVANIA

CITY           SKY/WX    TMP DP  RH WIND       PRES   REMARKS
BRADFORD       SUNNY     58  27  30 W18G30    30.04R
DUBOIS         PTSUNNY   61  46  57 W16       30.06S
CLEARFIELD     PTSUNNY   59  45  59 SW12G23   30.06S
JOHNSTOWN      CLOUDY    58  42  55 W13G22    30.09S
ALTOONA        PTSUNNY   63  41  44 W16G25    30.08S
STATE COLLEGE  PTSUNNY   61  45  55 W15G24    30.06R
WILLIAMSPORT   PTSUNNY   67  44  43 W9        29.98F
SELINSGROVE    SUNNY     67  46  47 W13G26    30.02F
FT INDIANTOWN  MOSUNNY   68  42  38 W17G29    30.01F
CAPITAL CITY   MOSUNNY   71  42  35 W16G31    30.02F
HARRISBURG     MOSUNNY   70  43  37 W16G25    30.01F
YORK           MOSUNNY   69  45  41 W10G23    30.05S
$$

PAZ038>040-043-044-047-048-054-055-060>062-067>071-221800-
EASTERN PENNSYLVANIA

CITY           SKY/WX    TMP DP  RH WIND       PRES   REMARKS
SCRANTON       MOSUNNY   68  40  35 NW10      29.96S
MOUNT POCONO   CLOUDY    60  40  47 W12G23    29.97R
ALLENTOWN      MOSUNNY   72  43  35 NW13G29   29.97F
QUAKERTOWN*    MOSUNNY   70  43  37 W10G23    30.00R
READING        PTSUNNY   70  41  34 W21G31    29.99F
LANCASTER        N/A     69  44  40 W16G28    30.02F
COATESVILLE    SUNNY     68  43  40 W18G30    30.03F
POTTSTOWN      PTSUNNY   69  42  37 W14G24    30.01S
BLUE BELL      SUNNY     73  43  33 W16G24    29.98S
DOYLESTOWN     MOSUNNY   70  39  32 W17G28    29.97S
WILLOW GROVE   NOT AVBL
NORTH PHILA    MOSUNNY   74  40  29 W18G28    29.99F
PHILADELPHIA   MOSUNNY   73  39  29 W22       30.00F
$$



USA.gov is the U.S. government's official web portal to all federal, state and local government web resources and services.